Regional Weather Roundup
Issued by NWS Jackson, KY

Home | Current Version | Previous Version | Graphics & Text | Print | Product List | Glossary On
Versions: 1 2 3 4 5 6 7 8 9 10 11 12 13 14 15 16 17 18 19 20 21 22 23 24 25 26 27 28 29 30 31 32 33 34 35 36 37 38 39 40 41 42 43 44 45 46 47 48 49 50
000
ASUS43 KJKL 281810
RWRJKL

EAST KENTUCKY HOURLY WEATHER ROUNDUP
NATIONAL WEATHER SERVICE JACKSON KY
200 PM EDT TUE JUL 28 2015

NOTE: "FAIR" INDICATES FEW OR NO CLOUDS BELOW 12,000 FEET WITH
NO SIGNIFICANT WEATHER AND/OR OBSTRUCTIONS TO VISIBILITY.

* THESE REPORTS ARE NOT UNDER NWS QUALITY CONTROL AND MAY NOT
  REPORT WEATHER SUCH AS PRECIPITATION AND FOG.

KYZ079-080-083-085-087-088-110-112-115-119-120-281900
...EASTERN KENTUCKY...

CITY           SKY/WX    TMP DP  RH WIND       PRES   REMARKS
JACKSON        MOSUNNY   87  72  60 CALM      30.03S HX  93
6HR MIN TEMP:  72; 6HR MAX TEMP:  87;

LONDON         MOSUNNY   90  70  51 VRB3      30.02F HX  95
6HR MIN TEMP:  72; 6HR MAX TEMP:  90;

SOMERSET*      PTSUNNY   86  72  62 NW3       30.02F HX  92
MONTICELLO*    MOSUNNY   91  77  63 CALM      30.04F HX 104
6HR MIN TEMP:  74; 6HR MAX TEMP:  91;

WILLIAMSBURG*  PTSUNNY   86  75  70 CALM      30.02F HX  95
MIDDLESBORO*   MOSUNNY   88  72  59 S3        30.02F HX  94
6HR MIN TEMP:  70; 6HR MAX TEMP:  88; 6HR PCP:  0.01;

HAZARD APT*    MOCLDY    88  72  58 CALM      30.03S HX  94
BLACK MTN*       N/A     75  68  78 NE2         N/A
PIKEVILLE APT* PTSUNNY   86  73  66 NW3       30.04S HX  93
BIG SANDY*     PTCLDY    87  71  59 CALM      30.02F HX  93
6HR MIN TEMP:  71; 6HR MAX TEMP:  89;

MOREHEAD APT*  CLOUDY    86  72  62 N5        30.04S HX  92
$$

KYZ035-036-041-042-044-050-067-078-099-281900
...CENTRAL KENTUCKY...

CITY           SKY/WX    TMP DP  RH WIND       PRES   REMARKS
MT STERLING*   CLOUDY    86  75  70 CALM      30.03S HX  95
FLEMING/MASON* MOSUNNY   86  73  66 CALM      30.02F HX  93
DANVILLE*      MOSUNNY   88  73  62 W8        30.02F HX  96
RICHMOND*      CLOUDY    79  72  78 N10G17    30.02R
LEXINGTON      MOSUNNY   87  75  67 W7        30.01S HX  96
6HR MIN TEMP:  74; 6HR MAX TEMP:  89;

FRANKFORT      MOSUNNY   89  75  63 VRB6      29.99S HX  99
6HR MIN TEMP:  76; 6HR MAX TEMP:  90; 6HR PCP:  0.02;

$$

KYZ091>093-OHZ055-061-077-WVZ005-015-034-035-042-281900
...SOUTHERN OHIO/WEST VIRGINIA...

CITY           SKY/WX    TMP DP  RH WIND       PRES   REMARKS
COVINGTON      PTSUNNY   89  73  59 VRB3      30.00S HX  97
COLUMBUS       MOSUNNY   87  66  49 SE7       30.00S
DAYTON         MOSUNNY   84  70  62 E5        30.03S
WILMINGTON     PTSUNNY   84  71  65 NE5       30.02S
HUNTINGTON     PTSUNNY   86  73  65 CALM      30.00S HX  93
CHARLESTON     MOSUNNY   88  71  57 VRB5      30.00F HX  94
PINEVILLE*     MOSUNNY   87  71  57 MISG      30.09F HX  93
BECKLEY        RAIN      77  67  71 W6        30.09F
BLUEFIELD      SUNNY     85  68  56 VRB3      30.11F
$$

VAZ002-007-008-TNZ017-027-036-066-071-281900
...SOUTHWEST VIRGINIA/EAST TENNESSEE...

CITY           SKY/WX    TMP DP  RH WIND       PRES   REMARKS
WISE*          PTSUNNY   86  66  51 NE3       30.12F
ABINGDON*      MOSUNNY   87  68  52 W8        30.07F HX  90
BRISTOL        MOSUNNY   88  70  55 VRB3      30.04F HX  93
KNOXVILLE      PTSUNNY   91  76  61 W6        30.01F HX 103
OAK RIDGE      PTSUNNY   91  72  53 VRB5      30.02F HX  98
CROSSVILLE     MOSUNNY   88  70  55 W8        30.08F HX  93
NASHVILLE      MOSUNNY   93  72  50 W8        30.00F HX 101
$$

...KEY TO REMARKS...
VSB - VISIBILITY IN MILES
WCI - WIND CHILL INDEX
HX  - HEAT INDEX

$$



USA.gov is the U.S. government's official web portal to all federal, state and local government web resources and services.